N62PT KCAK-KCAK

Flight info

Callsign N62PT
Flight time N/A
Altitude 3000
Route EGGII
Aircraft P28A/L-SDFRY/C

Departure

Time 2026-04-27 21:01
Airport Akron Canton Regional Airport (KCAK)

Arrival

Time N/A
Airport Akron Canton Regional Airport (KCAK)
Time Latitude Longitude Altitude Speed Heading
2026-04-27 20:32 40.91781 -81.43489 1203 ft 0 kts 15°
2026-04-27 20:51 40.91790 -81.43498 1204 ft 7 kts 252°
2026-04-27 20:51 40.91746 -81.43584 1204 ft 11 kts 248°
2026-04-27 20:51 40.91756 -81.43653 1206 ft 11 kts 244°
2026-04-27 20:51 40.91688 -81.43785 1205 ft 15 kts 251°
2026-04-27 20:52 40.91631 -81.43892 1204 ft 12 kts 211°
2026-04-27 20:52 40.91558 -81.43928 1204 ft 11 kts 192°
2026-04-27 20:52 40.91465 -81.43943 1202 ft 15 kts 171°
2026-04-27 20:52 40.91359 -81.43887 1201 ft 14 kts 143°
2026-04-27 20:53 40.91283 -81.43888 1201 ft 10 kts 203°
2026-04-27 20:53 40.91198 -81.43932 1201 ft 17 kts 204°
2026-04-27 20:53 40.91079 -81.43973 1200 ft 14 kts 200°
2026-04-27 20:53 40.91055 -81.44094 1197 ft 21 kts 269°
2026-04-27 20:54 40.91070 -81.44503 1188 ft 21 kts 274°
2026-04-27 20:54 40.91069 -81.44692 1181 ft 19 kts 250°
2026-04-27 20:54 40.90976 -81.44837 1172 ft 24 kts 226°
2026-04-27 20:55 40.90839 -81.45035 1154 ft 32 kts 227°
2026-04-27 20:55 40.90694 -81.45247 1133 ft 26 kts 226°
2026-04-27 20:55 40.90567 -81.45427 1119 ft 30 kts 227°
2026-04-27 20:55 40.90455 -81.45593 1113 ft 16 kts 260°
2026-04-27 20:56 40.90460 -81.45637 1112 ft 0 kts 309°
2026-04-27 20:59 40.90461 -81.45639 1112 ft 3 kts 309°
2026-04-27 21:00 40.90537 -81.45659 1112 ft 21 kts 37°
2026-04-27 21:00 40.90638 -81.45563 1115 ft 13 kts 68°
2026-04-27 21:00 40.90759 -81.45359 1128 ft 52 kts 52°
2026-04-27 21:00 40.91085 -81.44913 1218 ft 75 kts 58°
2026-04-27 21:01 40.91446 -81.44383 1373 ft 79 kts 60°
2026-04-27 21:01 40.91867 -81.43865 1509 ft 90 kts 39°
2026-04-27 21:01 40.92497 -81.43733 1716 ft 89 kts 354°
2026-04-27 21:01 40.93132 -81.43753 1875 ft 92 kts
2026-04-27 21:02 40.93764 -81.43739 2060 ft 91 kts
2026-04-27 21:02 40.94398 -81.43721 2235 ft 90 kts 10°
2026-04-27 21:02 40.95026 -81.43645 2401 ft 94 kts
2026-04-27 21:02 40.95675 -81.43693 2587 ft 93 kts 360°
2026-04-27 21:03 40.96335 -81.43755 2744 ft 95 kts 359°
2026-04-27 21:03 40.96994 -81.43743 2886 ft 94 kts 25°
2026-04-27 21:03 40.97462 -81.43234 3013 ft 84 kts 77°
2026-04-27 21:03 40.97519 -81.42545 3206 ft 70 kts 102°
2026-04-27 21:04 40.97533 -81.41897 3345 ft 74 kts 102°
2026-04-27 21:04 40.97514 -81.41236 3525 ft 70 kts 103°
2026-04-27 21:04 40.97516 -81.40567 3656 ft 75 kts 100°
2026-04-27 21:04 40.97376 -81.39937 3799 ft 68 kts 133°
2026-04-27 21:05 40.96977 -81.39717 3931 ft 65 kts 183°
2026-04-27 21:05 40.96550 -81.39820 4111 ft 62 kts 187°
2026-04-27 21:05 40.96096 -81.39928 4193 ft 71 kts 186°
2026-04-27 21:05 40.95593 -81.40042 4291 ft 74 kts 188°
2026-04-27 21:06 40.95080 -81.40170 4400 ft 76 kts 181°
2026-04-27 21:06 40.94527 -81.40176 4494 ft 76 kts 180°
2026-04-27 21:06 40.93993 -81.40174 4604 ft 77 kts 182°
2026-04-27 21:06 40.93465 -81.40157 4735 ft 74 kts 180°
2026-04-27 21:07 40.92940 -81.40138 4814 ft 78 kts 180°
2026-04-27 21:07 40.92398 -81.40111 4916 ft 78 kts 179°
2026-04-27 21:07 40.91851 -81.40083 4988 ft 81 kts 176°
2026-04-27 21:07 40.91264 -81.40048 4998 ft 87 kts 178°
2026-04-27 21:08 40.90649 -81.40020 4995 ft 85 kts 179°
2026-04-27 21:08 40.90069 -81.39993 4993 ft 80 kts 178°
2026-04-27 21:08 40.89521 -81.39969 4996 ft 78 kts 178°
2026-04-27 21:08 40.88971 -81.39943 4998 ft 78 kts 178°
2026-04-27 21:09 40.88418 -81.39912 4997 ft 78 kts 178°
2026-04-27 21:09 40.87877 -81.39877 4996 ft 78 kts 177°
2026-04-27 21:09 40.87323 -81.39847 4996 ft 78 kts 178°
2026-04-27 21:09 40.86779 -81.39812 4995 ft 78 kts 177°
2026-04-27 21:10 40.86239 -81.39775 4995 ft 78 kts 177°
2026-04-27 21:10 40.85685 -81.39741 4998 ft 78 kts 177°
2026-04-27 21:10 40.85137 -81.39709 4996 ft 78 kts 177°
2026-04-27 21:10 40.84591 -81.39674 4997 ft 78 kts 177°
2026-04-27 21:11 40.84045 -81.39638 4995 ft 79 kts 177°
2026-04-27 21:11 40.83501 -81.39600 4997 ft 79 kts 177°
2026-04-27 21:11 40.82943 -81.39558 4996 ft 79 kts 177°
2026-04-27 21:11 40.82391 -81.39516 4997 ft 79 kts 177°
2026-04-27 21:12 40.81839 -81.39471 4997 ft 79 kts 176°
2026-04-27 21:12 40.81287 -81.39423 4998 ft 79 kts 177°
2026-04-27 21:12 40.80736 -81.39372 4997 ft 79 kts 177°
2026-04-27 21:12 40.80192 -81.39322 4997 ft 79 kts 176°
2026-04-27 21:13 40.79636 -81.39273 4999 ft 78 kts 177°
2026-04-27 21:13 40.79085 -81.39220 4994 ft 79 kts 177°
2026-04-27 21:13 40.78541 -81.39168 4997 ft 79 kts 176°
2026-04-27 21:13 40.77994 -81.39114 4995 ft 78 kts 177°
2026-04-27 21:14 40.77447 -81.39058 4992 ft 77 kts 176°
2026-04-27 21:14 40.76909 -81.39001 4989 ft 77 kts 176°
2026-04-27 21:14 40.76375 -81.38947 4991 ft 77 kts 176°
2026-04-27 21:14 40.75834 -81.38892 4995 ft 77 kts 176°
2026-04-27 21:15 40.75298 -81.38836 4994 ft 78 kts 175°
2026-04-27 21:15 40.74748 -81.38780 4989 ft 78 kts 176°
2026-04-27 21:15 40.74204 -81.38722 4991 ft 78 kts 175°
2026-04-27 21:15 40.73658 -81.38665 4990 ft 79 kts 175°
2026-04-27 21:16 40.73111 -81.38607 4994 ft 79 kts 176°
2026-04-27 21:16 40.72554 -81.38542 4991 ft 79 kts 176°
2026-04-27 21:16 40.72005 -81.38472 4983 ft 80 kts 175°
2026-04-27 21:16 40.71429 -81.38399 4990 ft 84 kts 175°
2026-04-27 21:17 40.70844 -81.38326 4994 ft 86 kts 175°
2026-04-27 21:17 40.70235 -81.38248 4996 ft 87 kts 175°
2026-04-27 21:17 40.69629 -81.38169 4995 ft 88 kts 175°
2026-04-27 21:17 40.69015 -81.38092 4991 ft 89 kts 175°
2026-04-27 21:18 40.68396 -81.38010 4996 ft 89 kts 175°
2026-04-27 21:18 40.67771 -81.37933 4992 ft 89 kts 176°
2026-04-27 21:18 40.67150 -81.37850 4991 ft 89 kts 175°
2026-04-27 21:18 40.66536 -81.37768 4991 ft 89 kts 176°
2026-04-27 21:19 40.65913 -81.37681 4992 ft 89 kts 174°
2026-04-27 21:19 40.65283 -81.37589 4990 ft 90 kts 175°
2026-04-27 21:19 40.64666 -81.37489 4990 ft 90 kts 170°
2026-04-27 21:20 40.64112 -81.36050 4993 ft 111 kts 81°
2026-04-27 21:20 40.64608 -81.35214 4995 ft 121 kts 36°
2026-04-27 21:20 40.65418 -81.34881 4994 ft 123 kts 11°
2026-04-27 21:20 40.66270 -81.34687 4994 ft 124 kts 10°
2026-04-27 21:21 40.67112 -81.34513 4992 ft 120 kts 10°
2026-04-27 21:21 40.67927 -81.34347 4992 ft 119 kts
2026-04-27 21:21 40.68744 -81.34181 4994 ft 118 kts
2026-04-27 21:21 40.69561 -81.34019 4991 ft 118 kts
2026-04-27 21:22 40.70378 -81.33856 4995 ft 117 kts
2026-04-27 21:22 40.71187 -81.33696 4994 ft 118 kts
2026-04-27 21:22 40.72004 -81.33537 4996 ft 117 kts
2026-04-27 21:22 40.72809 -81.33379 4995 ft 117 kts
2026-04-27 21:23 40.73621 -81.33218 4994 ft 117 kts
2026-04-27 21:23 40.74430 -81.33057 4993 ft 117 kts
2026-04-27 21:23 40.75248 -81.32893 4989 ft 117 kts
2026-04-27 21:23 40.76019 -81.32579 4990 ft 116 kts 11°
2026-04-27 21:24 40.76802 -81.32758 4990 ft 113 kts 325°
2026-04-27 21:24 40.77436 -81.33392 4882 ft 117 kts 314°
2026-04-27 21:24 40.78062 -81.34100 4761 ft 119 kts 313°
2026-04-27 21:24 40.78687 -81.34825 4643 ft 119 kts 313°
2026-04-27 21:25 40.79316 -81.35560 4522 ft 121 kts 313°
2026-04-27 21:25 40.79941 -81.36295 4406 ft 121 kts 313°
2026-04-27 21:25 40.80589 -81.37013 4283 ft 124 kts 327°
2026-04-27 21:25 40.81221 -81.37740 4162 ft 118 kts 295°
2026-04-27 21:26 40.81478 -81.38734 4033 ft 109 kts 259°
2026-04-27 21:26 40.81226 -81.39588 3913 ft 97 kts 221°
2026-04-27 21:26 40.80734 -81.40186 3798 ft 95 kts 212°